Tracking 31027 objects as of 19-Jul-2025
HD Live streaming from Space Station
objects crossing your sky now

STARLINK-2636

Track STARLINK-2636 now!
10-day predictions
STARLINK-2636 is classified as:


NORAD ID: 48357
Int'l Code: 2021-038E
Perigee: 553.6 km
Apogee: 555.1 km
Inclination: 53.1 °
Period: 95.6 minutes
Semi major axis: 6925 km
RCS: Unknown
Launch date: May 4, 2021
Source: United States (US)
Launch site: AIR FORCE EASTERN TEST RANGE (AFETR)
Your satellite tracking list
STARLINK-1749
Track 1 satellite(s)




NASA's NSSDC Master Catalog

Two Line Element Set (TLE):
1 48357U 21038E   25199.35712261  .00000607  00000-0  59629-4 0  9992
2 48357  53.0559 334.0029 0001109  89.1698 270.9418 15.06399242231704
Source of the keplerian elements: AFSPC